| time (UTC) | temp C | wind direction | speed KPH | gust KPH | rain 1hr cm | rain 24hr cm | rain mn cm | humidity % | barometer mb |
| 20260831232313 | 20 | 172 | 0.0 | 0.0 | 0.00 | 0.03 | 0.00 | 87 | 1019.5 |
| 20260831231322 | 20 | 172 | 0.0 | 0.0 | 0.00 | 0.03 | 0.00 | 87 | 1019.6 |
| 20260831230358 | 20 | 172 | 0.0 | 0.0 | 0.00 | 0.03 | 0.00 | 87 | 1019.7 |
| 20260831225347 | 20 | 172 | 0.0 | 0.0 | 0.00 | 0.03 | 0.00 | 86 | 1019.7 |
| 20260831224315 | 21 | 172 | 0.0 | 0.0 | 0.00 | 0.03 | 0.00 | 86 | 1019.6 |
| 20260831223331 | 21 | 172 | 0.0 | 0.0 | 0.00 | 0.03 | 0.00 | 85 | 1019.8 |
| 20260831222319 | 21 | 172 | 0.0 | 0.0 | 0.00 | 0.03 | 0.00 | 86 | 1019.6 |
| 20260831221332 | 21 | 172 | 0.0 | 0.0 | 0.00 | 0.03 | 0.00 | 86 | 1019.8 |
| 20260831220322 | 21 | 172 | 0.0 | 0.0 | 0.00 | 0.03 | 0.00 | 85 | 1019.5 |
| 20260831215333 | 21 | 172 | 0.0 | 0.0 | 0.00 | 0.03 | 0.00 | 85 | 1019.6 |
| 20260831214323 | 21 | 172 | 0.0 | 0.0 | 0.00 | 0.03 | 0.00 | 85 | 1019.6 |
| 20260831213333 | 21 | 172 | 0.0 | 0.0 | 0.00 | 0.03 | 0.00 | 83 | 1019.6 |
| 20260831212320 | 21 | 172 | 0.0 | 0.0 | 0.00 | 0.03 | 0.00 | 83 | 1019.6 |
| 20260831211315 | 21 | 172 | 0.0 | 0.0 | 0.00 | 0.03 | 0.00 | 82 | 1019.5 |
| 20260831210323 | 22 | 172 | 0.0 | 0.0 | 0.00 | 0.03 | 0.00 | 81 | 1019.6 |
| 20260831205340 | 22 | 172 | 0.0 | 0.0 | 0.00 | 0.03 | 0.00 | 79 | 1019.6 |
| 20260831204328 | 22 | 172 | 0.0 | 0.0 | 0.00 | 0.03 | 0.00 | 78 | 1019.6 |
| 20260831203317 | 22 | 172 | 0.0 | 0.0 | 0.00 | 0.03 | 0.00 | 76 | 1019.5 |
| 20260831202325 | 22 | 172 | 0.0 | 0.0 | 0.00 | 0.03 | 0.00 | 73 | 1019.5 |
| 20260831201334 | 22 | 172 | 0.0 | 0.0 | 0.00 | 0.03 | 0.00 | 72 | 1019.6 |
| 20260831200323 | 23 | 172 | 0.0 | 0.0 | 0.00 | 0.03 | 0.00 | 71 | 1019.8 |
| 20260831195311 | 24 | 172 | 0.0 | 0.0 | 0.00 | 0.03 | 0.00 | 65 | 1019.8 |
| 20260831194320 | 24 | 172 | 0.0 | 0.0 | 0.00 | 0.03 | 0.00 | 67 | 1020.1 |
| 20260831193335 | 23 | 172 | 0.0 | 0.0 | 0.00 | 0.03 | 0.00 | 67 | 1020.2 |
| 20260831192327 | 24 | 172 | 0.0 | 0.0 | 0.00 | 0.03 | 0.00 | 67 | 1020.4 |
| 20260831191315 | 23 | 172 | 0.0 | 0.0 | 0.00 | 0.03 | 0.00 | 67 | 1020.3 |
| 20260831190332 | 23 | 172 | 0.0 | 0.0 | 0.00 | 0.03 | 0.00 | 69 | 1020.5 |
| 20260831185327 | 23 | 172 | 0.0 | 0.0 | 0.00 | 0.03 | 0.00 | 66 | 1020.6 |
| 20260831184317 | 23 | 171 | 0.0 | 0.0 | 0.00 | 0.03 | 0.00 | 68 | 1020.6 |
| 20260831183327 | 24 | 171 | 0.0 | 3.2 | 0.00 | 0.03 | 0.00 | 67 | 1020.4 |
| 20260831182337 | 24 | 174 | 0.0 | 0.0 | 0.00 | 0.03 | 0.00 | 68 | 1020.5 |
| 20260831181345 | 23 | 172 | 0.0 | 0.0 | 0.00 | 0.03 | 0.00 | 71 | 1020.6 |
| 20260831180313 | 23 | 172 | 0.0 | 0.0 | 0.00 | 0.03 | 0.00 | 73 | 1020.7 |
| 20260831175322 | 23 | 172 | 0.0 | 0.0 | 0.00 | 0.03 | 0.00 | 75 | 1020.9 |
| 20260831174312 | 24 | 172 | 0.0 | 0.0 | 0.00 | 0.03 | 0.00 | 75 | 1020.9 |
| 20260831173324 | 25 | 172 | 0.0 | 1.6 | 0.00 | 0.03 | 0.00 | 70 | 1020.8 |
| 20260831172340 | 25 | 220 | 0.0 | 1.6 | 0.00 | 0.03 | 0.00 | 69 | 1020.7 |
| 20260831171329 | 25 | 232 | 0.0 | 1.6 | 0.00 | 0.03 | 0.00 | 70 | 1020.7 |
| 20260831170315 | 24 | 232 | 0.0 | 1.6 | 0.00 | 0.03 | 0.00 | 69 | 1020.8 |
| 20260831165351 | 24 | 235 | 0.0 | 3.2 | 0.00 | 0.03 | 0.00 | 70 | 1020.8 |
| 20260831164319 | 24 | 214 | 0.0 | 1.6 | 0.00 | 0.03 | 0.00 | 69 | 1020.9 |
| 20260831163338 | 24 | 229 | 0.0 | 1.6 | 0.00 | 0.03 | 0.00 | 71 | 1021.0 |
| 20260831162324 | 23 | 240 | 0.0 | 1.6 | 0.00 | 0.03 | 0.00 | 71 | 1021.1 |
| 20260831161314 | 23 | 241 | 0.0 | 1.6 | 0.00 | 0.03 | 0.00 | 69 | 1021.1 |
| 20260831160322 | 22 | 240 | 0.0 | 3.2 | 0.00 | 0.03 | 0.00 | 72 | 1021.2 |
| 20260831155330 | 22 | 236 | 0.0 | 1.6 | 0.00 | 0.03 | 0.00 | 75 | 1021.3 |
| 20260831154346 | 22 | 233 | 0.0 | 1.6 | 0.00 | 0.03 | 0.00 | 75 | 1021.0 |
| 20260831153334 | 22 | 233 | 0.0 | 1.6 | 0.00 | 0.03 | 0.00 | 75 | 1021.2 |
| 20260831152323 | 22 | 233 | 0.0 | 3.2 | 0.00 | 0.03 | 0.00 | 73 | 1021.2 |
| 20260831151313 | 22 | 237 | 0.0 | 4.8 | 0.00 | 0.03 | 0.00 | 76 | 1021.2 |
| 20260831150322 | 22 | 244 | 0.0 | 1.6 | 0.00 | 0.03 | 0.00 | 80 | 1021.1 |
| 20260831145311 | 21 | 246 | 0.0 | 1.6 | 0.00 | 0.03 | 0.00 | 86 | 1021.2 |
| 20260831144330 | 21 | 244 | 0.0 | 1.6 | 0.00 | 0.03 | 0.00 | 85 | 1021.1 |
| 20260831143323 | 21 | 244 | 0.0 | 1.6 | 0.00 | 0.03 | 0.00 | 86 | 1021.3 |
| 20260831142354 | 20 | 244 | 0.0 | 1.6 | 0.00 | 0.03 | 0.00 | 88 | 1021.3 |
| 20260831141327 | 20 | 244 | 0.0 | 1.6 | 0.00 | 0.03 | 0.00 | 89 | 1021.1 |
| 20260831140318 | 20 | 244 | 0.0 | 1.6 | 0.00 | 0.03 | 0.00 | 89 | 1021.0 |
| 20260831135326 | 19 | 245 | 0.0 | 1.6 | 0.00 | 0.03 | 0.00 | 91 | 1021.0 |
| 20260831134313 | 19 | 246 | 0.0 | 0.0 | 0.00 | 0.03 | 0.00 | 94 | 1021.0 |
| 20260831133330 | 19 | 246 | 0.0 | 1.6 | 0.00 | 0.03 | 0.00 | 93 | 1021.1 |
| 20260831132318 | 18 | 246 | 0.0 | 1.6 | 0.00 | 0.03 | 0.00 | 94 | 1021.0 |
| 20260831131336 | 18 | 245 | 0.0 | 1.6 | 0.00 | 0.03 | 0.00 | 96 | 1021.0 |
| 20260831130330 | 18 | 245 | 0.0 | 0.0 | 0.00 | 0.03 | 0.00 | 96 | 1021.0 |
| 20260831125323 | 18 | 245 | 0.0 | 0.0 | 0.00 | 0.03 | 0.00 | 96 | 1021.1 |
| 20260831124345 | 17 | 245 | 0.0 | 1.6 | 0.00 | 0.03 | 0.00 | 97 | 1020.9 |
| 20260831123336 | 17 | 247 | 0.0 | 1.6 | 0.00 | 0.03 | 0.00 | 97 | 1020.9 |
| 20260831122329 | 17 | 245 | 0.0 | 1.6 | 0.00 | 0.03 | 0.00 | 97 | 1020.9 |
| 20260831121323 | 17 | 245 | 0.0 | 0.0 | 0.00 | 0.03 | 0.00 | 97 | 1020.9 |
| 20260831120332 | 17 | 245 | 0.0 | 1.6 | 0.00 | 0.03 | 0.00 | 97 | 1020.7 |
| 20260831115327 | 16 | 246 | 0.0 | 0.0 | 0.00 | 0.03 | 0.00 | 97 | 1020.9 |
| 20260831114346 | 16 | 246 | 0.0 | 1.6 | 0.00 | 0.03 | 0.00 | 97 | 1021.0 |
| 20260831113318 | 16 | 246 | 0.0 | 0.0 | 0.00 | 0.03 | 0.00 | 97 | 1020.8 |
| 20260831112358 | 16 | 246 | 0.0 | 0.0 | 0.00 | 0.03 | 0.00 | 97 | 1020.8 |
| 20260831111328 | 16 | 247 | 0.0 | 0.0 | 0.00 | 0.03 | 0.00 | 97 | 1020.5 |
| 20260831110350 | 16 | 246 | 0.0 | 0.0 | 0.00 | 0.03 | 0.00 | 97 | 1020.3 |
| 20260831105318 | 16 | 246 | 0.0 | 0.0 | 0.00 | 0.03 | 0.00 | 97 | 1019.9 |
| 20260831104311 | 16 | 246 | 0.0 | 0.0 | 0.00 | 0.03 | 0.00 | 97 | 1020.1 |
| 20260831103333 | 16 | 246 | 0.0 | 0.0 | 0.00 | 0.03 | 0.00 | 97 | 1020.0 |
| 20260831102326 | 16 | 246 | 0.0 | 0.0 | 0.00 | 0.03 | 0.00 | 97 | 1019.9 |
| 20260831101325 | 16 | 246 | 0.0 | 0.0 | 0.00 | 0.03 | 0.00 | 97 | 1019.8 |
| 20260831100317 | 16 | 246 | 0.0 | 0.0 | 0.00 | 0.03 | 0.00 | 97 | 1019.8 |
| 20260831095312 | 16 | 246 | 0.0 | 0.0 | 0.00 | 0.03 | 0.00 | 97 | 1019.8 |
| 20260831094330 | 16 | 247 | 0.0 | 0.0 | 0.00 | 0.03 | 0.00 | 97 | 1019.9 |
| 20260831093350 | 16 | 248 | 0.0 | 0.0 | 0.00 | 0.03 | 0.00 | 97 | 1019.8 |
| 20260831092320 | 16 | 248 | 0.0 | 0.0 | 0.00 | 0.03 | 0.00 | 97 | 1019.8 |
| 20260831091335 | 16 | 248 | 0.0 | 0.0 | 0.00 | 0.03 | 0.00 | 97 | 1019.8 |
| 20260831090324 | 16 | 248 | 0.0 | 0.0 | 0.00 | 0.03 | 0.00 | 96 | 1019.8 |
| 20260831085345 | 16 | 248 | 0.0 | 0.0 | 0.00 | 0.03 | 0.00 | 96 | 1019.6 |
| 20260831084318 | 16 | 248 | 0.0 | 0.0 | 0.00 | 0.03 | 0.00 | 96 | 1019.6 |
| 20260831083335 | 16 | 248 | 0.0 | 0.0 | 0.00 | 0.03 | 0.00 | 96 | 1019.7 |
| 20260831082354 | 16 | 248 | 0.0 | 0.0 | 0.00 | 0.03 | 0.00 | 96 | 1019.7 |
| 20260831081328 | 16 | 248 | 0.0 | 0.0 | 0.00 | 0.03 | 0.00 | 96 | 1019.5 |
| 20260831080349 | 16 | 248 | 0.0 | 0.0 | 0.00 | 0.03 | 0.00 | 96 | 1019.6 |
| 20260831074329 | 17 | 248 | 0.0 | 0.0 | 0.00 | 0.03 | 0.00 | 96 | 1019.5 |
| 20260831073320 | 17 | 248 | 0.0 | 0.0 | 0.00 | 0.03 | 0.00 | 96 | 1019.6 |
| 20260831072313 | 17 | 248 | 0.0 | 0.0 | 0.00 | 0.03 | 0.00 | 96 | 1019.6 |
| 20260831071334 | 17 | 248 | 0.0 | 0.0 | 0.00 | 0.03 | 0.00 | 96 | 1019.5 |
| 20260831070329 | 17 | 248 | 0.0 | 0.0 | 0.00 | 0.03 | 0.00 | 96 | 1019.5 |
| 20260831065325 | 17 | 248 | 0.0 | 0.0 | 0.00 | 0.03 | 0.00 | 96 | 1019.5 |
| 20260831064316 | 17 | 248 | 0.0 | 0.0 | 0.00 | 0.03 | 0.00 | 96 | 1019.5 |
| 20260831063336 | 17 | 248 | 0.0 | 0.0 | 0.00 | 0.03 | 0.00 | 96 | 1019.5 |
| 20260831062315 | 17 | 248 | 0.0 | 0.0 | 0.00 | 0.03 | 0.00 | 96 | 1019.3 |
| 20260831061331 | 18 | 248 | 0.0 | 0.0 | 0.00 | 0.03 | 0.00 | 95 | 1019.4 |
| 20260831060326 | 18 | 248 | 0.0 | 0.0 | 0.00 | 0.03 | 0.00 | 95 | 1019.4 |
| 20260831055344 | 18 | 248 | 0.0 | 0.0 | 0.00 | 0.03 | 0.00 | 95 | 1019.3 |
| 20260831054316 | 18 | 248 | 0.0 | 0.0 | 0.00 | 0.03 | 0.00 | 95 | 1019.3 |
| 20260831053315 | 18 | 248 | 0.0 | 0.0 | 0.00 | 0.03 | 0.00 | 95 | 1019.3 |
| 20260831052334 | 18 | 248 | 0.0 | 0.0 | 0.00 | 0.03 | 0.00 | 95 | 1019.1 |
| 20260831051326 | 19 | 248 | 0.0 | 0.0 | 0.00 | 0.03 | 0.00 | 95 | 1019.1 |
| 20260831050323 | 19 | 248 | 0.0 | 0.0 | 0.00 | 0.03 | 0.00 | 95 | 1019.2 |
| 20260831045347 | 20 | 248 | 0.0 | 1.6 | 0.00 | 0.03 | 0.00 | 95 | 1019.1 |
| 20260831044344 | 20 | 248 | 0.0 | 0.0 | 0.00 | 0.03 | 0.00 | 94 | 1019.0 |
| 20260831043316 | 20 | 248 | 0.0 | 0.0 | 0.00 | 0.03 | 0.00 | 94 | 1019.1 |
| 20260831042337 | 20 | 248 | 0.0 | 0.0 | 0.00 | 0.03 | 0.00 | 94 | 1019.0 |
| 20260831041335 | 20 | 248 | 0.0 | 1.6 | 0.00 | 0.03 | 0.00 | 94 | 1019.1 |
| 20260831040333 | 20 | 214 | 0.0 | 0.0 | 0.00 | 0.03 | 0.00 | 93 | 1019.2 |
| 20260831035320 | 20 | 214 | 0.0 | 1.6 | 0.00 | 0.03 | 0.03 | 93 | 1019.1 |
| 20260831034330 | 20 | 214 | 0.0 | 1.6 | 0.00 | 0.03 | 0.03 | 93 | 1019.2 |
| 20260831033321 | 21 | 108 | 0.0 | 1.6 | 0.00 | 0.03 | 0.03 | 94 | 1019.1 |
| 20260831032316 | 21 | 53 | 0.0 | 1.6 | 0.03 | 0.03 | 0.03 | 94 | 1019.2 |
| 20260831031355 | 21 | 219 | 0.0 | 1.6 | 0.03 | 0.03 | 0.03 | 94 | 1019.4 |
| 20260831030328 | 21 | 219 | 0.0 | 1.6 | 0.03 | 0.03 | 0.03 | 94 | 1019.3 |
| 20260831025317 | 21 | 219 | 0.0 | 1.6 | 0.03 | 0.03 | 0.03 | 94 | 1019.3 |
| 20260831024336 | 21 | 73 | 0.0 | 3.2 | 0.03 | 0.03 | 0.03 | 95 | 1019.5 |
| 20260831023331 | 21 | 146 | 0.0 | 1.6 | 0.03 | 0.03 | 0.03 | 95 | 1019.6 |
| 20260831022323 | 21 | 185 | 0.0 | 0.0 | 0.00 | 0.00 | 0.00 | 95 | 1019.5 |
| 20260831021312 | 21 | 185 | 0.0 | 0.0 | 0.00 | 0.00 | 0.00 | 95 | 1019.5 |
| 20260831020334 | 21 | 185 | 0.0 | 0.0 | 0.00 | 0.00 | 0.00 | 95 | 1019.3 |
| 20260831015329 | 21 | 186 | 0.0 | 0.0 | 0.00 | 0.00 | 0.00 | 95 | 1019.3 |
| 20260831014322 | 21 | 186 | 0.0 | 1.6 | 0.00 | 0.00 | 0.00 | 95 | 1019.1 |
| 20260831013316 | 21 | 219 | 0.0 | 1.6 | 0.00 | 0.00 | 0.00 | 95 | 1019.0 |
| 20260831012317 | 21 | 223 | 0.0 | 0.0 | 0.00 | 0.00 | 0.00 | 94 | 1019.1 |
| 20260831011335 | 21 | 223 | 0.0 | 0.0 | 0.00 | 0.00 | 0.00 | 94 | 1019.0 |
| 20260831010329 | 21 | 223 | 0.0 | 0.0 | 0.00 | 0.00 | 0.00 | 94 | 1018.9 |
| 20260831005326 | 21 | 223 | 0.0 | 0.0 | 0.00 | 0.00 | 0.00 | 93 | 1019.0 |
| 20260831004345 | 21 | 223 | 0.0 | 0.0 | 0.00 | 0.00 | 0.00 | 93 | 1018.9 |
| 20260831003318 | 21 | 223 | 0.0 | 0.0 | 0.00 | 0.00 | 0.00 | 92 | 1018.8 |
| 20260831002314 | 21 | 223 | 0.0 | 0.0 | 0.00 | 0.00 | 0.00 | 92 | 1018.7 |
| 20260831001332 | 21 | 223 | 0.0 | 0.0 | 0.00 | 0.00 | 0.00 | 92 | 1018.7 |
| 20260831000327 | 21 | 223 | 0.0 | 0.0 | 0.00 | 0.00 | 0.00 | 91 | 1018.7 |
| 20260830235316 | 21 | 223 | 0.0 | 0.0 | 0.00 | 0.00 | 0.00 | 90 | 1018.5 |
| 20260830234358 | 21 | 223 | 0.0 | 0.0 | 0.00 | 0.00 | 0.00 | 89 | 1018.5 |
| 20260830233329 | 21 | 223 | 0.0 | 0.0 | 0.00 | 0.00 | 0.00 | 89 | 1018.5 |